Regional Weather Roundup
Issued by NWS Upton, NY

Current Version | Previous Version | Text Only | Print | Product List | Glossary On
Versions: 1 2 3 4 5 6 7 8 9 10 11 12 13 14 15 16 17 18 19 20 21 22 23 24 25 26 27 28 29 30 31 32 33 34 35 36 37 38 39 40 41 42 43 44 45 46 47 48 49 50
377 ASUS41 KOKX 271105 RWROKX REGIONAL WEATHER ROUNDUP NATIONAL WEATHER SERVICE NEW YORK NY 700 AM EDT WED JUL 27 2016 NOTE: "FAIR" INDICATES FEW OR NO CLOUDS BELOW 12,000 FEET WITH NO SIGNIFICANT WEATHER AND/OR OBSTRUCTIONS TO VISIBILITY. NYZ071-072-176-178-NJZ106-104-271200- NEW YORK CITY METRO AREA CITY SKY/WX TMP DP RH WIND PRES REMARKS Central Park CLOUDY 77 62 59 NE5 29.98R LaGuardia APRT CLOUDY 77 61 57 NE6 29.95R Kennedy INTL CLOUDY 76 61 59 N3 29.96R Newark/Liberty CLOUDY 76 65 68 N6 29.95R Bronx Bot Gard N/A N/A N/A N/A NE5 29.97R Wall St Helipt PTSUNNY 79 64 61 NE6 29.96R Teterboro CLOUDY 73 63 70 CALM 29.95R $$ NYZ177-179-078>081-271200- LONG ISLAND NEW YORK CITY SKY/WX TMP DP RH WIND PRES REMARKS Farmingdale PTSUNNY 73 64 73 MISG 29.95R MacArthur/ISP CLOUDY 74 65 73 N3 29.94S Shirley PTSUNNY 72 65 78 N5 29.95R Riverhead NOT AVBL Westhampton MOSUNNY 70 64 81 CALM 29.96R Southhampton N/A 73 66 78 N2 29.90S Bridgehampton N/A 70 66 88 CALM 29.94S East Hampton FAIR 70 65 84 CALM 29.94S Montauk N/A 73 65 75 CALM 29.95R $$ NYZ052-065-067-271200- HUDSON VALLEY CITY SKY/WX TMP DP RH WIND PRES REMARKS White Plains MOSUNNY 71 61 70 W3 29.97R Newburgh MOSUNNY 64 64 100 NW5 29.99R Montgomery SUNNY 64 62 93 CALM 29.98R Poughkeepsie SUNNY 65 61 87 CALM 29.96R Albany MOSUNNY 67 61 81 CALM 29.97R $$ NJZ001-105-106-008-010-013-015-019>022-104-271200- NEW JERSEY CITY SKY/WX TMP DP RH WIND PRES REMARKS Newark/Liberty CLOUDY 76 65 68 N6 29.95R Teterboro CLOUDY 73 63 70 CALM 29.95R Caldwell PTSUNNY 71 65 81 CALM 29.97R Morristown PTSUNNY 66 64 94 CALM 29.97R Somerville MOSUNNY 67 65 93 CALM 29.95R Linden FAIR 75 63 66 CALM 29.97S Sussex MOSUNNY 63 63 100 CALM 29.99R Abdover N/A 63 63 100 CALM 29.99R Trenton CLOUDY 74 63 68 N3 29.95S Millville LGT RAIN 76 73 91 E5 29.94R Atlantic City CLOUDY 76 71 85 CALM 29.94S Wrightstown CLOUDY 72 66 80 NE2 29.93S Toms River CLOUDY 72 68 87 CALM 29.96S Belmar CLOUDY 75 64 68 NE5 29.96S $$ PAZ047>061-062-071-271200- EASTERN PENNSYLVANIA CITY SKY/WX TMP DP RH WIND PRES REMARKS Philadelphia CLOUDY 78 64 61 NE8 29.95S Allentown PTSUNNY 70 65 84 CALM 29.98R Scranton SUNNY 64 60 87 E3 30.02R $$ CTZ002-004>006-009-010-012-RIZ004-006-007-MAZ004-011-015-271200- SOUTHERN NEW ENGLAND IN CT CITY SKY/WX TMP DP RH WIND PRES REMARKS Bradley INTL MOSUNNY 71 61 70 W3 29.94R Hartford SUNNY 72 67 84 CALM 29.95R Danbury MOSUNNY 65 61 87 CALM 29.98S Wtrbury/Oxford MOSUNNY 66 59 77 CALM 29.98R Bridgeport MOSUNNY 73 62 68 CALM 29.95R Meriden SUNNY 68 63 84 CALM 29.96R New Haven MOSUNNY 72 64 76 CALM 29.95R Chester FAIR 72 63 73 NW6 29.96R Groton SUNNY 73 64 73 CALM 29.93R Wilimantic NOT AVBL IN RI CITY SKY/WX TMP DP RH WIND PRES REMARKS Providence MOSUNNY 73 62 68 CALM 29.94R Block Island MOSUNNY 73 64 73 N3 29.94S Westerly SUNNY 71 63 75 CALM 29.94S IN MA CITY SKY/WX TMP DP RH WIND PRES REMARKS Boston MOSUNNY 76 60 57 NW7 29.92S Worchester SUNNY 72 58 61 NW5 29.98R Westfield SUNNY 67 62 84 S3 29.95R Provincetown MOSUNNY 72 66 81 NW8 29.92S Nantucket SUNNY 75 65 70 N8 29.91S $$ ANZ330-335-338-340-345-350-353-355-271200- COASTAL MARINE OBSERVATIONS STATION/POSITION TIME SKY/WX TEMP WIND PRES VSBY WAVE AIR SEA DIR/SP/G HT/PER (UTC) (F) (DEG/KT/KT) (MB) (MI) (FT/S) NY HARB ENTRANCE 1050 75 73 10/ 4/ 4 1013.9 2/ 7 20S FIRE ISLAND 0950 76 75 20/ 6/ 8 1013.5 2/ 6 GREAT SOUTH BAY 1030 75 81 350/ 6/ 8 N/A 23 SSW MONTAUK P 0950 70 69 290/ 4/ 6 1014.0 2/ 7 15 E BARNEGAT LI NOT AVBL HUDSON CANYON 0950 78 78 1013.4 2/ 6 KINGS POINT 1000 72 72 1013.9 EXECUTION ROCKS 1000 73 20/ 2/ 4 N/A CENTRAL LI SOUND 1015 74 73 300/ 2/ 4 N/A 0 EASTERN LI SOUND 1000 70 68 30/ 4/ 4 N/A ROBBINS REEF 1000 76 320/ 3/ 3 1013.4 $$ >>>>>>>>>>>>>>>>>>>>>>>>>>>> KEY <<<<<<<<<<<<<<<<<<<<<<<<<<< > < > SKY/WX - Sky Condition/Present Weather < > TMP - Temperature in Fahrenheit < > DP - Dew Point in Fahrenheit < > RH - Relative Humidity in Percent < > WIND - Direction (from) and Speed in MPH < > PRES - Mean Sea Level Pressure (inches of Hg) < > WCI - Wind Chill Index < > VSB - VISIBILITY IN MILES < > HX - HEAT INDEX < > TC - TEMPERATURE IN CELSIUS < > VRB - VARIABLE WIND DIRECTION < > < >>>>>>>>>>>>>>>>>>>>>>>>>>>> KEY <<<<<<<<<<<<<<<<<<<<<<<<<<<

USA.gov is the U.S. government's official web portal to all federal, state and local government web resources and services.